This demonstration page uses our WeatherBlox Daily Observations layout. Learn more.

Left ArrowRight Arrow

36.17497, -115.13722

Hourly Observations for June 6, 2019

Temp ( °F °C ) Dew Point ( °F °C ) Humidity (%) Winds ( mph kmh ) Pressure ( in mb ) Visibility ( mi km ) Precip ( " mm )
12:53 am 00:53 Clear 86 30 42 5.6 21 21 NW 6 9 29.74 1007 10 16 0.00 0.00
1:53 am 01:53 Clear 85 29.4 43 6.1 23 23 Calm 29.75 1007 10 16 0.00 0.00
2:53 am 02:53 Clear 82 27.8 44 6.7 26 26 NW 5 7 29.75 1007 10 16 0.00 0.00
3:53 am 03:53 Clear 81 27.2 43 6.1 26 26 W 5 7 29.75 1008 10 16 0.00 0.00
4:53 am 04:53 Clear 79 26.1 42 5.6 27 27 Calm 29.76 1008 10 16 0.00 0.00
5:53 am 05:53 Sunny 78 25.6 43 6.1 29 29 Calm 29.78 1008 10 16 0.00 0.00
6:53 am 06:53 Sunny 81 27.2 45 7.2 28 28 Calm 29.79 1009 10 16 0.00 0.00
7:53 am 07:53 Sunny 85 29.4 45 7.2 25 25 ESE 6 9 29.80 1009 10 16 0.00 0.00
8:53 am 08:53 Sunny 89 31.7 44 6.7 21 21 ESE 9 15 29.80 1009 10 16 0.00 0.00
9:53 am 09:53 Sunny 93 33.9 44 6.7 18 18 ESE 13 20 29.79 1009 10 16 0.00 0.00
10:53 am 10:53 Sunny 96 35.6 43 6.1 16 16 ESE 15 24 29.78 1008 10 16 0.00 0.00
11:53 am 11:53 Sunny 100 37.8 37 2.8 11 11 SSW 18 30 29.76 1008 10 16 0.00 0.00
12:53 pm 12:53 Sunny 100 37.8 39 3.9 12 12 W 16 26 29.75 1008 10 16 0.00 0.00
1:53 pm 13:53 Sunny 101 38.3 37 2.8 11 11 WSW 21 33 29.73 1007 10 16 0.00 0.00
2:53 pm 14:53 Sunny 101 38.3 34 1.1 10 10 SW 22 35 29.72 1006 10 16 0.00 0.00
3:53 pm 15:53 Sunny with Light Rain 101 38.3 33 0.6 9 9 SW 24 39 29.71 1006 10 16 0.00 0.03
4:53 pm 16:53 Sunny 101 38.3 31 -0.6 8 8 WSW 18 30 29.70 1006 10 16 0.00 0.03
5:53 pm 17:53 Sunny 98 36.7 32 0 10 10 SW 15 24 29.69 1005 10 16 0.00 0.00
6:53 pm 18:53 Sunny 97 36.1 33 0.6 10 10 SSW 18 30 29.68 1005 10 16 0.00 0.00
7:53 pm 19:53 Sunny 95 35 30 -1.1 10 10 WSW 17 28 29.68 1005 10 16 0.00 0.00
8:53 pm 20:53 Clear 92 33.3 29 -1.7 10 10 WSW 12 19 29.70 1006 10 16 0.00 0.00
9:53 pm 21:53 Clear 91 32.8 28 -2.2 10 10 WSW 16 26 29.71 1006 10 16 0.00 0.00
10:53 pm 22:53 Clear 89 31.7 27 -2.8 11 11 WSW 16 26 29.72 1006 10 16 0.00 0.00
11:53 pm 23:53 Clear 87 30.6 30 -1.1 13 13 WSW 15 24 29.72 1006 10 16 0.00 0.00

Powered by AerisWeather